Starlink 30787

operational
NORAD ID: 58128 Int'l Des: 2023-162 Owner: SPXS Country: US Constellation: starlink
LEOCIRCULAR

Über Starlink 30787

Beschreibung wird geladen...

Live-Position

3D-Globus wird geladen...

Nächste Überflüge

Höhenverlauf

Altitude vs Time

uPlot chart will show altitude changes over time

Zweizeiliger Elementsatz

1 58128U 23162L 25258.59575249 .00000245 00000-0 33258-4 0 9992
2 58128 43.0069 4.3013 0001946 275.3276 84.7345 15.02535936105962
Epoch: 15. Sept. 2025 • Age: 12 hours

Aktueller Status

Höhe 563.5 km
Geschwindigkeit 7.58 km/s
Subsatellitenpunkt 42.63°N, 78.96°E
Startdatum 22. Okt. 2023
Alter 1.9 years
Typ internet

Technische Details

Klassifizierung Payload
Masse 730.00 kg
Trockenmasse 700.00 kg
Gesamtmasse 730.00 kg
Länge 0.30 m
Durchmesser 4.10 m
Spannweite 29.00 m
Form Box + pan
Hersteller SPXS
Bus-Typ Starlink V2M
Phasenstatus In Orbit
Besitzer/Staat SPXS/US

Große Konstellationen

Loading constellations...